{"data":{"norad_id":63149,"epoch":"2026-05-24T20:36:05.528448Z","epoch_age_seconds":97319,"freshness":"FRESH","line1":"1 63149U 25043T   26144.85839732  .00014781  00000+0  54519-3 0  9996","line2":"2 63149  42.9970 305.8798 0001748 271.6528  88.4123 15.27602500 69017","mean_motion":15.276025,"eccentricity":0.0001748,"inclination_deg":42.997,"raan_deg":305.8798,"arg_perigee_deg":271.6528,"mean_anomaly_deg":88.4123,"bstar":0.00054519,"rev_number":6901,"period_min":94.265360262241,"perigee_km":481.78240021935,"apogee_km":484.18104732518,"semimajor_km":6861.1187237723,"source":"CELESTRAK","updated_at":"2026-05-25T13:38:19.917491Z"}}